UAL2385 KIAH-KMSY

Flight info

Callsign UAL2385
Flight time 0h 41m
Altitude 29000
Route GUMBY3 GUSTI AWDAD AWDAD1
Aircraft B739/M-SDE2E3FGHIRWXY/LB1

Departure

Time 2026-05-05 20:00
Airport George Bush Intercontinental Airport (KIAH)

Arrival

Time 2026-05-05 20:41
Airport Louis Armstrong New Orleans International Airport (KMSY)
Time Latitude Longitude Altitude Speed Heading
2026-05-05 19:43 29.98536 -95.33976 105 ft 0 kts 356°
2026-05-05 19:50 29.98522 -95.33975 106 ft 4 kts 356°
2026-05-05 19:51 29.98499 -95.33974 105 ft 4 kts
2026-05-05 19:51 29.98473 -95.33979 105 ft 4 kts 28°
2026-05-05 19:51 29.98453 -95.33998 105 ft 4 kts 60°
2026-05-05 19:51 29.98446 -95.34026 104 ft 4 kts 101°
2026-05-05 19:52 29.98455 -95.34053 104 ft 4 kts 116°
2026-05-05 19:52 29.98459 -95.34060 105 ft 1 kts 116°
2026-05-05 19:54 29.98432 -95.34032 106 ft 8 kts 169°
2026-05-05 19:55 29.98378 -95.34056 106 ft 10 kts 239°
2026-05-05 19:55 29.98378 -95.34164 106 ft 15 kts 272°
2026-05-05 19:55 29.98376 -95.34276 106 ft 15 kts 271°
2026-05-05 19:55 29.98376 -95.34417 106 ft 20 kts 269°
2026-05-05 19:56 29.98376 -95.34584 106 ft 21 kts 274°
2026-05-05 19:56 29.98378 -95.34749 106 ft 20 kts 270°
2026-05-05 19:56 29.98379 -95.34916 106 ft 28 kts 270°
2026-05-05 19:56 29.98382 -95.35153 106 ft 29 kts 281°
2026-05-05 19:57 29.98531 -95.35289 106 ft 27 kts 332°
2026-05-05 19:57 29.98640 -95.35357 106 ft 26 kts 331°
2026-05-05 19:57 29.98790 -95.35452 106 ft 6 kts 333°
2026-05-05 19:57 29.98835 -95.35484 106 ft 11 kts 328°
2026-05-05 19:58 29.98872 -95.35583 104 ft 18 kts 245°
2026-05-05 19:58 29.98832 -95.35666 106 ft 5 kts 241°
2026-05-05 19:58 29.98827 -95.35677 105 ft 0 kts 241°
2026-05-05 19:58 29.98825 -95.35680 106 ft 2 kts 241°
2026-05-05 19:59 29.98804 -95.35725 107 ft 10 kts 240°
2026-05-05 19:59 29.98742 -95.35756 108 ft 13 kts 167°
2026-05-05 19:59 29.98576 -95.35655 107 ft 55 kts 151°
2026-05-05 19:59 29.98041 -95.35322 107 ft 116 kts 152°
2026-05-05 20:00 29.97175 -95.34801 106 ft 163 kts 152°
2026-05-05 20:00 29.96151 -95.34184 667 ft 159 kts 155°
2026-05-05 20:00 29.95298 -95.33380 1236 ft 166 kts 134°
2026-05-05 20:00 29.94562 -95.32276 1607 ft 185 kts 133°
2026-05-05 20:01 29.93716 -95.31021 1826 ft 211 kts 133°
2026-05-05 20:01 29.92753 -95.29608 2005 ft 237 kts 133°
2026-05-05 20:01 29.91699 -95.28066 2379 ft 254 kts 132°
2026-05-05 20:01 29.90604 -95.26462 3155 ft 258 kts 133°
2026-05-05 20:02 29.89491 -95.24843 3847 ft 255 kts 134°
2026-05-05 20:02 29.88381 -95.23191 4483 ft 264 kts 131°
2026-05-05 20:02 29.87302 -95.21450 5208 ft 269 kts 129°
2026-05-05 20:02 29.86202 -95.19659 5797 ft 279 kts 129°
2026-05-05 20:03 29.85065 -95.17826 6472 ft 283 kts 129°
2026-05-05 20:03 29.83931 -95.15995 7195 ft 281 kts 130°
2026-05-05 20:03 29.82796 -95.14122 7739 ft 289 kts 124°
2026-05-05 20:03 29.82221 -95.11861 8336 ft 300 kts 95°
2026-05-05 20:04 29.82174 -95.10272 8837 ft 301 kts 94°
2026-05-05 20:04 29.82088 -95.06999 9599 ft 310 kts 94°
2026-05-05 20:04 29.82035 -95.05352 9998 ft 311 kts 94°
2026-05-05 20:04 29.81942 -95.02827 10425 ft 324 kts 94°
2026-05-05 20:05 29.81836 -95.00151 10574 ft 344 kts 94°
2026-05-05 20:05 29.81751 -94.97313 10713 ft 363 kts 90°
2026-05-05 20:05 29.81894 -94.94372 11095 ft 372 kts 86°
2026-05-05 20:05 29.82131 -94.91378 11574 ft 378 kts 85°
2026-05-05 20:06 29.82377 -94.88345 12161 ft 380 kts 85°
2026-05-05 20:06 29.82604 -94.85299 12758 ft 384 kts 86°
2026-05-05 20:06 29.82814 -94.82214 13226 ft 390 kts 86°
2026-05-05 20:06 29.83013 -94.79122 13805 ft 393 kts 86°
2026-05-05 20:07 29.83213 -94.75969 14337 ft 397 kts 86°
2026-05-05 20:07 29.83428 -94.72778 14809 ft 403 kts 86°
2026-05-05 20:07 29.83655 -94.69538 15311 ft 407 kts 85°
2026-05-05 20:07 29.83886 -94.66268 15857 ft 412 kts 85°
2026-05-05 20:08 29.84119 -94.62965 16376 ft 416 kts 85°
2026-05-05 20:08 29.84353 -94.59622 16889 ft 420 kts 85°
2026-05-05 20:08 29.84587 -94.56244 17394 ft 425 kts 85°
2026-05-05 20:08 29.84822 -94.52821 17873 ft 431 kts 85°
2026-05-05 20:09 29.85060 -94.49359 18329 ft 436 kts 85°
2026-05-05 20:09 29.85298 -94.45861 18744 ft 440 kts 84°
2026-05-05 20:09 29.85535 -94.42374 19171 ft 444 kts 84°
2026-05-05 20:09 29.85777 -94.38806 19601 ft 448 kts 84°
2026-05-05 20:10 29.86019 -94.35208 20035 ft 453 kts 84°
2026-05-05 20:10 29.86253 -94.31562 20460 ft 458 kts 86°
2026-05-05 20:10 29.86274 -94.27871 20888 ft 463 kts 91°
2026-05-05 20:10 29.86128 -94.24146 21315 ft 467 kts 93°
2026-05-05 20:11 29.85976 -94.20393 21718 ft 471 kts 89°
2026-05-05 20:11 29.86188 -94.16613 22103 ft 474 kts 82°
2026-05-05 20:11 29.86545 -94.12824 22499 ft 477 kts 81°
2026-05-05 20:11 29.86937 -94.09058 22872 ft 481 kts 81°
2026-05-05 20:12 29.87338 -94.05224 23237 ft 484 kts 81°
2026-05-05 20:12 29.87728 -94.01346 23582 ft 488 kts 81°
2026-05-05 20:12 29.88104 -93.97452 23913 ft 491 kts 81°
2026-05-05 20:12 29.88468 -93.93522 24250 ft 493 kts 82°
2026-05-05 20:13 29.88823 -93.89574 24609 ft 496 kts 82°
2026-05-05 20:13 29.89174 -93.85613 24942 ft 498 kts 82°
2026-05-05 20:13 29.89525 -93.81629 25296 ft 501 kts 82°
2026-05-05 20:13 29.89876 -93.77629 25637 ft 503 kts 82°
2026-05-05 20:14 29.90227 -93.73609 25975 ft 505 kts 82°
2026-05-05 20:14 29.90581 -93.69567 26292 ft 508 kts 82°
2026-05-05 20:14 29.90936 -93.65497 26605 ft 511 kts 82°
2026-05-05 20:14 29.91288 -93.61457 26908 ft 513 kts 82°
2026-05-05 20:15 29.91644 -93.57352 27218 ft 516 kts 82°
2026-05-05 20:15 29.92000 -93.53227 27522 ft 518 kts 82°
2026-05-05 20:15 29.92358 -93.49080 27826 ft 520 kts 82°
2026-05-05 20:15 29.92714 -93.44926 28141 ft 522 kts 82°
2026-05-05 20:16 29.93070 -93.40752 28490 ft 523 kts 82°
2026-05-05 20:16 29.93426 -93.36572 28823 ft 525 kts 82°
2026-05-05 20:16 29.93783 -93.32369 28932 ft 529 kts 82°
2026-05-05 20:17 29.94491 -93.23965 28916 ft 528 kts 82°
2026-05-05 20:17 29.95195 -93.15545 28917 ft 526 kts 82°
2026-05-05 20:18 29.95891 -93.07157 28919 ft 525 kts 83°
2026-05-05 20:18 29.96581 -92.98778 28925 ft 524 kts 82°
2026-05-05 20:19 29.97267 -92.90397 28919 ft 524 kts 82°
2026-05-05 20:19 29.97945 -92.82038 28930 ft 523 kts 82°
2026-05-05 20:20 29.98618 -92.73677 28935 ft 524 kts 82°
2026-05-05 20:20 29.99288 -92.65291 28938 ft 525 kts 82°
2026-05-05 20:21 29.99949 -92.56943 28937 ft 526 kts 82°
2026-05-05 20:21 30.00609 -92.48538 28928 ft 526 kts 82°
2026-05-05 20:22 30.01261 -92.40136 28933 ft 525 kts 82°
2026-05-05 20:22 30.01907 -92.31740 28938 ft 525 kts 83°
2026-05-05 20:23 30.02540 -92.23413 28927 ft 511 kts 82°
2026-05-05 20:23 30.02848 -92.19330 28542 ft 511 kts 82°
2026-05-05 20:23 30.03155 -92.15264 28032 ft 506 kts 82°
2026-05-05 20:23 30.03457 -92.11234 27479 ft 502 kts 82°
2026-05-05 20:24 30.03753 -92.07284 26935 ft 499 kts 82°
2026-05-05 20:24 30.04050 -92.03306 26386 ft 495 kts 82°
2026-05-05 20:24 30.04344 -91.99357 25856 ft 492 kts 82°
2026-05-05 20:24 30.04635 -91.95420 25278 ft 490 kts 82°
2026-05-05 20:25 30.04924 -91.91500 24720 ft 487 kts 82°
2026-05-05 20:25 30.05206 -91.87656 24178 ft 485 kts 81°
2026-05-05 20:25 30.05489 -91.83787 23628 ft 483 kts 81°
2026-05-05 20:25 30.05766 -91.79981 23006 ft 481 kts 82°
2026-05-05 20:26 30.06045 -91.76142 22428 ft 477 kts 82°
2026-05-05 20:26 30.06319 -91.72343 21880 ft 473 kts 82°
2026-05-05 20:26 30.06589 -91.68573 21333 ft 469 kts 82°
2026-05-05 20:26 30.06858 -91.64826 20809 ft 465 kts 82°
2026-05-05 20:27 30.07122 -91.61121 20281 ft 461 kts 82°
2026-05-05 20:27 30.07383 -91.57453 19757 ft 457 kts 83°
2026-05-05 20:27 30.07641 -91.53804 19218 ft 454 kts 83°
2026-05-05 20:27 30.07893 -91.50218 18687 ft 443 kts 83°
2026-05-05 20:28 30.08137 -91.46719 18159 ft 432 kts 83°
2026-05-05 20:28 30.08375 -91.43304 17599 ft 421 kts 83°
2026-05-05 20:28 30.08606 -91.39975 17095 ft 410 kts 83°
2026-05-05 20:28 30.08831 -91.36735 16615 ft 400 kts 83°
2026-05-05 20:29 30.09050 -91.33574 16152 ft 390 kts 82°
2026-05-05 20:29 30.09263 -91.30481 15733 ft 384 kts 83°
2026-05-05 20:29 30.09469 -91.27454 15304 ft 383 kts 83°
2026-05-05 20:29 30.09681 -91.24357 14861 ft 382 kts 83°
2026-05-05 20:30 30.09887 -91.21336 14405 ft 381 kts 83°
2026-05-05 20:30 30.10096 -91.18283 13955 ft 380 kts 83°
2026-05-05 20:30 30.10303 -91.15234 13470 ft 379 kts 83°
2026-05-05 20:30 30.10509 -91.12204 12986 ft 378 kts 83°
2026-05-05 20:31 30.10712 -91.09191 12516 ft 376 kts 84°
2026-05-05 20:31 30.10915 -91.06189 12051 ft 374 kts 84°
2026-05-05 20:31 30.11116 -91.03202 11600 ft 372 kts 84°
2026-05-05 20:31 30.11314 -91.00234 11272 ft 366 kts 85°
2026-05-05 20:32 30.11505 -90.97349 11124 ft 355 kts 85°
2026-05-05 20:32 30.11663 -90.94620 10896 ft 348 kts 89°
2026-05-05 20:32 30.11554 -90.91825 10462 ft 348 kts 96°
2026-05-05 20:32 30.11295 -90.89054 10044 ft 347 kts 98°
2026-05-05 20:33 30.11020 -90.86306 9899 ft 337 kts 97°
2026-05-05 20:33 30.10772 -90.83676 9878 ft 322 kts 97°
2026-05-05 20:33 30.10551 -90.81164 9838 ft 306 kts 97°
2026-05-05 20:33 30.10343 -90.78695 8982 ft 315 kts 97°
2026-05-05 20:34 30.10135 -90.76139 8170 ft 322 kts 97°
2026-05-05 20:34 30.09929 -90.73566 7616 ft 319 kts 97°
2026-05-05 20:34 30.09726 -90.71028 7178 ft 313 kts 98°
2026-05-05 20:34 30.09431 -90.68577 6774 ft 304 kts 105°
2026-05-05 20:35 30.08925 -90.66239 6394 ft 296 kts 109°
2026-05-05 20:35 30.08360 -90.63984 5993 ft 289 kts 110°
2026-05-05 20:35 30.07803 -90.61773 5492 ft 287 kts 110°
2026-05-05 20:35 30.07254 -90.59544 5044 ft 285 kts 109°
2026-05-05 20:36 30.06720 -90.57350 4656 ft 280 kts 109°
2026-05-05 20:36 30.06211 -90.55246 4296 ft 263 kts 110°
2026-05-05 20:36 30.05740 -90.53299 3990 ft 246 kts 110°
2026-05-05 20:36 30.05293 -90.51459 3710 ft 232 kts 110°
2026-05-05 20:37 30.04863 -90.49697 3436 ft 224 kts 111°
2026-05-05 20:37 30.04579 -90.48532 3269 ft 223 kts 111°
2026-05-05 20:37 30.04024 -90.46246 2921 ft 224 kts 111°
2026-05-05 20:37 30.03605 -90.44512 2634 ft 224 kts 111°
2026-05-05 20:38 30.03185 -90.42778 2376 ft 224 kts 111°
2026-05-05 20:38 30.02762 -90.41031 2108 ft 226 kts 111°
2026-05-05 20:38 30.02348 -90.39312 1857 ft 216 kts 111°
2026-05-05 20:38 30.01962 -90.37703 1583 ft 200 kts 112°
2026-05-05 20:39 30.01599 -90.36209 1343 ft 187 kts 111°
2026-05-05 20:39 30.01263 -90.34814 1101 ft 177 kts 114°
2026-05-05 20:39 30.00946 -90.33502 949 ft 167 kts 112°
2026-05-05 20:39 30.00637 -90.32218 718 ft 161 kts 113°
2026-05-05 20:40 30.00348 -90.31024 528 ft 148 kts 113°
2026-05-05 20:40 30.00063 -90.29879 346 ft 149 kts 109°
2026-05-05 20:40 29.99806 -90.28757 145 ft 140 kts 111°
2026-05-05 20:40 29.99538 -90.27646 4 ft 140 kts 109°
2026-05-05 20:41 29.99312 -90.26728 10 ft 91 kts 106°
2026-05-05 20:41 29.99188 -90.26196 4 ft 60 kts 106°
2026-05-05 20:41 29.99115 -90.25895 8 ft 33 kts 105°
2026-05-05 20:41 29.99085 -90.25679 6 ft 23 kts 60°
2026-05-05 20:42 29.99194 -90.25603 4 ft 16 kts 64°
2026-05-05 20:42 29.99275 -90.25541 5 ft 15 kts
2026-05-05 20:42 29.99352 -90.25570 5 ft 9 kts 279°
2026-05-05 20:42 29.99356 -90.25613 6 ft 0 kts 275°